CSN8185 ZGGG-ZSFZ

Flight info

Callsign CSN8185
Flight time 1h 12m
Altitude 26600
Route LMN G471 XEBUL NUVGA VETIB W155 TEBON A470 ENVEN
Aircraft B772/H-SDE2E3FGHIJ5LORVWXY/LB1D1

Departure

Time 2026-04-10 06:37
Airport Guangzhou Baiyun International Airport (ZGGG)

Arrival

Time 2026-04-10 07:49
Airport Fuzhou Changle International Airport (ZSFZ)
Time Latitude Longitude Altitude Speed Heading
2026-04-10 06:17 23.39913 113.29442 58 ft 0 kts 76°
2026-04-10 06:27 23.39909 113.29427 58 ft 2 kts 76°
2026-04-10 06:27 23.39906 113.29411 58 ft 2 kts 76°
2026-04-10 06:27 23.39902 113.29394 58 ft 2 kts 76°
2026-04-10 06:28 23.39899 113.29381 58 ft 0 kts 76°
2026-04-10 06:28 23.39896 113.29369 58 ft 2 kts 71°
2026-04-10 06:28 23.39890 113.29354 58 ft 2 kts 61°
2026-04-10 06:28 23.39882 113.29340 58 ft 2 kts 53°
2026-04-10 06:29 23.39872 113.29328 58 ft 2 kts 44°
2026-04-10 06:29 23.39861 113.29317 58 ft 2 kts 36°
2026-04-10 06:29 23.39849 113.29308 58 ft 2 kts 28°
2026-04-10 06:29 23.39835 113.29301 58 ft 2 kts 19°
2026-04-10 06:30 23.39825 113.29298 58 ft 0 kts 13°
2026-04-10 06:30 23.39824 113.29298 58 ft 0 kts 13°
2026-04-10 06:32 23.39834 113.29301 58 ft 4 kts 13°
2026-04-10 06:32 23.39891 113.29317 58 ft 12 kts 14°
2026-04-10 06:32 23.40009 113.29348 58 ft 20 kts 13°
2026-04-10 06:32 23.40141 113.29385 58 ft 13 kts 13°
2026-04-10 06:33 23.40252 113.29414 58 ft 19 kts 13°
2026-04-10 06:33 23.40397 113.29453 58 ft 24 kts 14°
2026-04-10 06:33 23.40545 113.29493 58 ft 22 kts 13°
2026-04-10 06:33 23.40627 113.29514 58 ft 9 kts
2026-04-10 06:34 23.40686 113.29457 58 ft 15 kts 287°
2026-04-10 06:34 23.40726 113.29371 58 ft 14 kts 350°
2026-04-10 06:34 23.40800 113.29346 58 ft 12 kts 305°
2026-04-10 06:34 23.40809 113.29321 58 ft 0 kts 282°
2026-04-10 06:35 23.40817 113.29284 58 ft 9 kts 282°
2026-04-10 06:35 23.40800 113.29195 58 ft 14 kts 215°
2026-04-10 06:36 23.40767 113.29180 58 ft 1 kts 195°
2026-04-10 06:36 23.40646 113.29147 58 ft 48 kts 193°
2026-04-10 06:36 23.40032 113.28978 58 ft 128 kts 193°
2026-04-10 06:36 23.39039 113.28706 448 ft 154 kts 193°
2026-04-10 06:37 23.38064 113.28325 1190 ft 153 kts 190°
2026-04-10 06:37 23.36994 113.28448 1625 ft 165 kts 167°
2026-04-10 06:37 23.35787 113.28560 1960 ft 185 kts 189°
2026-04-10 06:37 23.34535 113.28034 2322 ft 206 kts 215°
2026-04-10 06:38 23.33541 113.26798 2696 ft 230 kts 236°
2026-04-10 06:38 23.32736 113.25195 3135 ft 250 kts 240°
2026-04-10 06:38 23.31846 113.23562 3796 ft 256 kts 228°
2026-04-10 06:38 23.30412 113.22410 4621 ft 257 kts 203°
2026-04-10 06:39 23.28714 113.21878 5481 ft 258 kts 195°
2026-04-10 06:39 23.26938 113.21478 6229 ft 263 kts 194°
2026-04-10 06:39 23.25117 113.21083 6907 ft 269 kts 194°
2026-04-10 06:39 23.23282 113.20682 7664 ft 272 kts 195°
2026-04-10 06:40 23.21404 113.20271 8385 ft 276 kts 195°
2026-04-10 06:40 23.19499 113.19853 9071 ft 281 kts 195°
2026-04-10 06:40 23.17595 113.19442 9769 ft 285 kts 193°
2026-04-10 06:40 23.15575 113.19423 10387 ft 300 kts 175°
2026-04-10 06:41 23.13537 113.20183 10743 ft 326 kts 154°
2026-04-10 06:41 23.11749 113.21883 11180 ft 350 kts 129°
2026-04-10 06:41 23.10738 113.24295 11822 ft 363 kts 105°
2026-04-10 06:41 23.10269 113.26981 12668 ft 364 kts 102°
2026-04-10 06:42 23.09832 113.29699 13403 ft 369 kts 103°
2026-04-10 06:42 23.09368 113.32461 14103 ft 377 kts 100°
2026-04-10 06:42 23.09281 113.35317 14851 ft 384 kts 87°
2026-04-10 06:42 23.09736 113.38174 15668 ft 389 kts 75°
2026-04-10 06:43 23.10737 113.40955 16365 ft 396 kts 62°
2026-04-10 06:43 23.12196 113.43497 16981 ft 404 kts 54°
2026-04-10 06:43 23.13785 113.46017 17687 ft 409 kts 55°
2026-04-10 06:43 23.15393 113.48614 18469 ft 412 kts 55°
2026-04-10 06:44 23.16970 113.51201 19181 ft 417 kts 55°
2026-04-10 06:44 23.18570 113.53858 19890 ft 422 kts 56°
2026-04-10 06:44 23.20174 113.56544 20570 ft 427 kts 56°
2026-04-10 06:44 23.21790 113.59265 21230 ft 432 kts 56°
2026-04-10 06:45 23.23407 113.61999 21856 ft 437 kts 56°
2026-04-10 06:45 23.25069 113.64819 22494 ft 442 kts 56°
2026-04-10 06:45 23.26723 113.67631 23124 ft 447 kts 56°
2026-04-10 06:45 23.28399 113.70483 23760 ft 450 kts 56°
2026-04-10 06:46 23.30100 113.73383 24378 ft 454 kts 55°
2026-04-10 06:46 23.31808 113.76299 24962 ft 458 kts 55°
2026-04-10 06:46 23.33499 113.79188 25609 ft 460 kts 55°
2026-04-10 06:46 23.35222 113.82134 26229 ft 461 kts 54°
2026-04-10 06:47 23.36960 113.85107 26435 ft 463 kts 54°
2026-04-10 06:47 23.38669 113.88036 26453 ft 460 kts 54°
2026-04-10 06:47 23.40395 113.90993 26458 ft 458 kts 54°
2026-04-10 06:47 23.42088 113.93896 26460 ft 460 kts 54°
2026-04-10 06:48 23.43817 113.96864 26460 ft 459 kts 54°
2026-04-10 06:48 23.45515 113.99779 26458 ft 459 kts 54°
2026-04-10 06:48 23.47221 114.02710 26456 ft 459 kts 54°
2026-04-10 06:48 23.48922 114.05632 26461 ft 459 kts 54°
2026-04-10 06:49 23.50635 114.08580 26465 ft 460 kts 54°
2026-04-10 06:49 23.52341 114.11514 26471 ft 459 kts 54°
2026-04-10 06:49 23.54052 114.14458 26475 ft 460 kts 54°
2026-04-10 06:49 23.55784 114.17386 26480 ft 462 kts 54°
2026-04-10 06:50 23.57529 114.20328 26482 ft 461 kts 54°
2026-04-10 06:50 23.59277 114.23277 26483 ft 461 kts 54°
2026-04-10 06:50 23.61013 114.26209 26481 ft 460 kts 54°
2026-04-10 06:50 23.62746 114.29139 26480 ft 461 kts 54°
2026-04-10 06:51 23.64654 114.31928 26476 ft 457 kts 44°
2026-04-10 06:51 23.66930 114.34322 26472 ft 451 kts 34°
2026-04-10 06:51 23.69379 114.36391 26481 ft 450 kts 32°
2026-04-10 06:51 23.71901 114.38462 26476 ft 449 kts 31°
2026-04-10 06:52 23.74396 114.40508 26476 ft 448 kts 31°
2026-04-10 06:52 23.76891 114.42555 26478 ft 449 kts 31°
2026-04-10 06:52 23.79362 114.44584 26486 ft 449 kts 31°
2026-04-10 06:52 23.81862 114.46637 26492 ft 448 kts 31°
2026-04-10 06:53 23.84375 114.48702 26494 ft 448 kts 31°
2026-04-10 06:53 23.86847 114.50734 26497 ft 449 kts 31°
2026-04-10 06:53 23.89362 114.52804 26496 ft 449 kts 31°
2026-04-10 06:53 23.91854 114.54855 26499 ft 452 kts 31°
2026-04-10 06:54 23.94365 114.56922 26491 ft 451 kts 31°
2026-04-10 06:54 23.96863 114.58981 26490 ft 450 kts 31°
2026-04-10 06:54 23.99369 114.61047 26489 ft 451 kts 31°
2026-04-10 06:54 24.01855 114.63097 26484 ft 450 kts 31°
2026-04-10 06:55 24.04370 114.65173 26480 ft 452 kts 32°
2026-04-10 06:55 24.06888 114.67252 26465 ft 452 kts 32°
2026-04-10 06:55 24.09400 114.69327 26461 ft 452 kts 31°
2026-04-10 06:55 24.11929 114.71416 26458 ft 451 kts 32°
2026-04-10 06:56 24.14440 114.73493 26461 ft 452 kts 31°
2026-04-10 06:56 24.16947 114.75567 26459 ft 451 kts 31°
2026-04-10 06:56 24.19463 114.77649 26459 ft 452 kts 31°
2026-04-10 06:56 24.21863 114.79856 26457 ft 458 kts 40°
2026-04-10 06:57 24.23978 114.82539 26458 ft 465 kts 51°
2026-04-10 06:57 24.25659 114.85557 26458 ft 465 kts 61°
2026-04-10 06:57 24.26890 114.88871 26466 ft 470 kts 72°
2026-04-10 06:57 24.27616 114.92330 26469 ft 472 kts 82°
2026-04-10 06:58 24.27828 114.95940 26471 ft 470 kts 92°
2026-04-10 06:58 24.27545 114.99505 26476 ft 469 kts 99°
2026-04-10 06:58 24.27128 115.03059 26470 ft 470 kts 99°
2026-04-10 06:58 24.26734 115.06592 26470 ft 470 kts 98°
2026-04-10 06:59 24.26365 115.10106 26470 ft 469 kts 98°
2026-04-10 06:59 24.26009 115.13657 26469 ft 468 kts 98°
2026-04-10 06:59 24.25664 115.17226 26467 ft 468 kts 97°
2026-04-10 06:59 24.25332 115.20759 26469 ft 468 kts 97°
2026-04-10 07:00 24.25006 115.24290 26468 ft 468 kts 97°
2026-04-10 07:00 24.24681 115.27856 26466 ft 468 kts 97°
2026-04-10 07:00 24.24361 115.31394 26466 ft 468 kts 97°
2026-04-10 07:00 24.24042 115.34940 26468 ft 468 kts 97°
2026-04-10 07:01 24.23724 115.38496 26468 ft 468 kts 97°
2026-04-10 07:01 24.23408 115.42028 26470 ft 470 kts 97°
2026-04-10 07:01 24.23095 115.45575 26468 ft 470 kts 96°
2026-04-10 07:01 24.22838 115.49162 26473 ft 469 kts 95°
2026-04-10 07:02 24.22597 115.52699 26474 ft 468 kts 95°
2026-04-10 07:02 24.22353 115.56258 26474 ft 468 kts 95°
2026-04-10 07:02 24.22106 115.59825 26473 ft 469 kts 95°
2026-04-10 07:02 24.21859 115.63364 26472 ft 469 kts 95°
2026-04-10 07:03 24.21610 115.66919 26462 ft 469 kts 96°
2026-04-10 07:03 24.21360 115.70468 26459 ft 468 kts 96°
2026-04-10 07:03 24.21110 115.74000 26464 ft 470 kts 96°
2026-04-10 07:03 24.20855 115.77588 26463 ft 469 kts 96°
2026-04-10 07:04 24.20602 115.81133 26472 ft 469 kts 96°
2026-04-10 07:04 24.20346 115.84698 26469 ft 470 kts 96°
2026-04-10 07:04 24.20089 115.88276 26465 ft 470 kts 96°
2026-04-10 07:04 24.19831 115.91843 26468 ft 470 kts 96°
2026-04-10 07:05 24.19572 115.95416 26464 ft 470 kts 96°
2026-04-10 07:05 24.19313 115.98981 26473 ft 469 kts 96°
2026-04-10 07:05 24.19056 116.02512 26468 ft 469 kts 96°
2026-04-10 07:05 24.18792 116.06116 26465 ft 468 kts 96°
2026-04-10 07:06 24.18533 116.09641 26470 ft 468 kts 96°
2026-04-10 07:06 24.18274 116.13165 26476 ft 467 kts 96°
2026-04-10 07:06 24.18012 116.16718 26477 ft 466 kts 96°
2026-04-10 07:06 24.17750 116.20255 26481 ft 467 kts 96°
2026-04-10 07:07 24.17487 116.23790 26489 ft 468 kts 96°
2026-04-10 07:07 24.17220 116.27363 26491 ft 466 kts 96°
2026-04-10 07:07 24.16957 116.30884 26493 ft 467 kts 96°
2026-04-10 07:07 24.16690 116.34439 26495 ft 468 kts 96°
2026-04-10 07:08 24.16422 116.38001 26504 ft 467 kts 96°
2026-04-10 07:08 24.16156 116.41521 26504 ft 467 kts 96°
2026-04-10 07:08 24.15898 116.45055 26504 ft 467 kts 94°
2026-04-10 07:09 24.15623 116.52157 26514 ft 467 kts 93°
2026-04-10 07:09 24.15494 116.55696 26510 ft 468 kts 93°
2026-04-10 07:09 24.15360 116.59251 26511 ft 467 kts 93°
2026-04-10 07:09 24.15223 116.62817 26510 ft 466 kts 93°
2026-04-10 07:10 24.15084 116.66343 26506 ft 467 kts 94°
2026-04-10 07:10 24.14944 116.69874 26497 ft 467 kts 94°
2026-04-10 07:10 24.14800 116.73449 26496 ft 466 kts 94°
2026-04-10 07:10 24.14656 116.76992 26500 ft 466 kts 94°
2026-04-10 07:11 24.14511 116.80534 26502 ft 466 kts 94°
2026-04-10 07:11 24.14364 116.84102 26506 ft 466 kts 94°
2026-04-10 07:11 24.14226 116.87608 26503 ft 465 kts 92°
2026-04-10 07:11 24.14197 116.91154 26510 ft 464 kts 91°
2026-04-10 07:12 24.14191 116.94663 26512 ft 465 kts 91°
2026-04-10 07:12 24.14181 116.98216 26511 ft 466 kts 91°
2026-04-10 07:12 24.14167 117.01771 26513 ft 465 kts 91°
2026-04-10 07:12 24.14150 117.05317 26519 ft 466 kts 91°
2026-04-10 07:13 24.14130 117.08841 26520 ft 464 kts 91°
2026-04-10 07:13 24.14109 117.12344 26521 ft 464 kts 91°
2026-04-10 07:13 24.14086 117.15910 26520 ft 464 kts 91°
2026-04-10 07:13 24.14062 117.19406 26518 ft 463 kts 91°
2026-04-10 07:14 24.14036 117.22948 26522 ft 463 kts 91°
2026-04-10 07:14 24.14009 117.26463 26528 ft 466 kts 91°
2026-04-10 07:14 24.13981 117.30017 26529 ft 464 kts 91°
2026-04-10 07:14 24.13952 117.33523 26533 ft 464 kts 91°
2026-04-10 07:15 24.13923 117.37050 26534 ft 464 kts 91°
2026-04-10 07:15 24.13892 117.40592 26537 ft 463 kts 91°
2026-04-10 07:15 24.13987 117.44115 26534 ft 464 kts 83°
2026-04-10 07:15 24.14582 117.47572 26536 ft 465 kts 73°
2026-04-10 07:16 24.15685 117.50880 26535 ft 462 kts 62°
2026-04-10 07:16 24.17283 117.53964 26531 ft 460 kts 52°
2026-04-10 07:16 24.19261 117.56670 26522 ft 456 kts 44°
2026-04-10 07:16 24.21384 117.59230 26518 ft 455 kts 43°
2026-04-10 07:17 24.23530 117.61796 26513 ft 455 kts 43°
2026-04-10 07:17 24.25684 117.64374 26504 ft 456 kts 43°
2026-04-10 07:17 24.27813 117.66924 26481 ft 456 kts 43°
2026-04-10 07:17 24.29945 117.69483 26472 ft 456 kts 44°
2026-04-10 07:18 24.32096 117.72066 26464 ft 457 kts 44°
2026-04-10 07:18 24.34240 117.74643 26459 ft 456 kts 43°
2026-04-10 07:18 24.36383 117.77222 26453 ft 455 kts 44°
2026-04-10 07:18 24.38514 117.79787 26457 ft 455 kts 43°
2026-04-10 07:19 24.40659 117.82370 26461 ft 457 kts 44°
2026-04-10 07:19 24.42806 117.84957 26461 ft 457 kts 44°
2026-04-10 07:19 24.44934 117.87524 26463 ft 456 kts 44°
2026-04-10 07:19 24.47073 117.90107 26470 ft 455 kts 44°
2026-04-10 07:20 24.49208 117.92684 26470 ft 455 kts 44°
2026-04-10 07:20 24.51348 117.95270 26477 ft 456 kts 44°
2026-04-10 07:20 24.53487 117.97855 26482 ft 456 kts 44°
2026-04-10 07:20 24.55599 118.00410 26483 ft 457 kts 44°
2026-04-10 07:21 24.57767 118.02999 26486 ft 456 kts 42°
2026-04-10 07:21 24.59982 118.05509 26485 ft 457 kts 41°
2026-04-10 07:21 24.62183 118.07992 26484 ft 456 kts 41°
2026-04-10 07:21 24.64413 118.10512 26479 ft 455 kts 41°
2026-04-10 07:22 24.66634 118.13026 26480 ft 456 kts 41°
2026-04-10 07:22 24.68841 118.15527 26472 ft 457 kts 41°
2026-04-10 07:22 24.71043 118.18028 26467 ft 457 kts 41°
2026-04-10 07:22 24.73254 118.20544 26464 ft 456 kts 41°
2026-04-10 07:23 24.75466 118.23063 26459 ft 456 kts 41°
2026-04-10 07:23 24.77695 118.25603 26455 ft 456 kts 41°
2026-04-10 07:23 24.79883 118.28099 26455 ft 456 kts 41°
2026-04-10 07:23 24.82111 118.30641 26457 ft 456 kts 41°
2026-04-10 07:24 24.84300 118.33142 26462 ft 457 kts 41°
2026-04-10 07:24 24.86499 118.35655 26458 ft 451 kts 41°
2026-04-10 07:24 24.88640 118.38107 26457 ft 437 kts 41°
2026-04-10 07:24 24.90731 118.40505 26459 ft 424 kts 41°
2026-04-10 07:25 24.92781 118.42851 26460 ft 423 kts 41°
2026-04-10 07:25 24.94826 118.45188 26458 ft 425 kts 41°
2026-04-10 07:25 24.96870 118.47530 26456 ft 424 kts 41°
2026-04-10 07:25 24.98904 118.49861 26453 ft 422 kts 40°
2026-04-10 07:26 25.00964 118.52222 26452 ft 424 kts 41°
2026-04-10 07:26 25.03015 118.54575 26452 ft 424 kts 41°
2026-04-10 07:26 25.05049 118.56911 26454 ft 422 kts 41°
2026-04-10 07:26 25.07091 118.59256 26461 ft 424 kts 41°
2026-04-10 07:27 25.09123 118.61592 26463 ft 424 kts 40°
2026-04-10 07:27 25.11160 118.63990 26461 ft 424 kts 42°
2026-04-10 07:27 25.13147 118.66394 26445 ft 424 kts 43°
2026-04-10 07:27 25.15119 118.68780 26442 ft 424 kts 43°
2026-04-10 07:28 25.17137 118.71223 26438 ft 423 kts 43°
2026-04-10 07:28 25.19116 118.73616 26438 ft 425 kts 43°
2026-04-10 07:28 25.21140 118.76063 26434 ft 426 kts 43°
2026-04-10 07:28 25.23137 118.78476 26361 ft 437 kts 43°
2026-04-10 07:29 25.25258 118.81032 25826 ft 462 kts 43°
2026-04-10 07:29 25.27440 118.83672 25323 ft 464 kts 44°
2026-04-10 07:29 25.29595 118.86285 24844 ft 463 kts 44°
2026-04-10 07:29 25.31772 118.88924 24363 ft 461 kts 44°
2026-04-10 07:30 25.33929 118.91541 23898 ft 460 kts 44°
2026-04-10 07:30 25.36092 118.94114 23490 ft 461 kts 43°
2026-04-10 07:30 25.38322 118.96708 23060 ft 462 kts 43°
2026-04-10 07:30 25.40519 118.99264 22638 ft 462 kts 43°
2026-04-10 07:31 25.42752 119.01867 22200 ft 461 kts 43°
2026-04-10 07:31 25.44951 119.04431 21763 ft 462 kts 43°
2026-04-10 07:31 25.47167 119.07018 21319 ft 465 kts 43°
2026-04-10 07:31 25.49408 119.09637 20878 ft 467 kts 43°
2026-04-10 07:32 25.51643 119.12252 20437 ft 466 kts 43°
2026-04-10 07:32 25.53868 119.14856 19983 ft 467 kts 43°
2026-04-10 07:32 25.56113 119.17485 19457 ft 471 kts 43°
2026-04-10 07:32 25.58352 119.20110 18940 ft 468 kts 43°
2026-04-10 07:33 25.60582 119.22728 18422 ft 463 kts 43°
2026-04-10 07:33 25.62789 119.25319 17901 ft 457 kts 43°
2026-04-10 07:33 25.64965 119.27876 17363 ft 453 kts 44°
2026-04-10 07:33 25.67122 119.30411 16981 ft 447 kts 44°
2026-04-10 07:34 25.69234 119.32894 16889 ft 446 kts 43°
2026-04-10 07:34 25.71354 119.35387 16846 ft 446 kts 43°
2026-04-10 07:34 25.73492 119.37903 16515 ft 448 kts 43°
2026-04-10 07:34 25.75616 119.40403 16075 ft 443 kts 43°
2026-04-10 07:35 25.77738 119.42897 15537 ft 440 kts 43°
2026-04-10 07:35 25.79822 119.45348 14944 ft 436 kts 43°
2026-04-10 07:35 25.81905 119.47800 14380 ft 433 kts 43°
2026-04-10 07:35 25.83963 119.50223 13813 ft 428 kts 43°
2026-04-10 07:36 25.86058 119.52543 13221 ft 421 kts 37°
2026-04-10 07:36 25.88410 119.54420 12635 ft 412 kts 26°
2026-04-10 07:36 25.90923 119.55915 12030 ft 403 kts 23°
2026-04-10 07:36 25.93383 119.57311 11456 ft 395 kts 23°
2026-04-10 07:37 25.95800 119.58678 10970 ft 384 kts 23°
2026-04-10 07:37 25.98166 119.60016 10500 ft 375 kts 23°
2026-04-10 07:37 26.00460 119.61311 10041 ft 366 kts 24°
2026-04-10 07:37 26.02703 119.62579 9578 ft 359 kts 23°
2026-04-10 07:38 26.04937 119.63840 9117 ft 352 kts 24°
2026-04-10 07:38 26.07065 119.65041 8683 ft 349 kts 24°
2026-04-10 07:38 26.09273 119.66281 8210 ft 347 kts 24°
2026-04-10 07:38 26.11415 119.67481 7715 ft 344 kts 25°
2026-04-10 07:39 26.13550 119.68680 7240 ft 339 kts 24°
2026-04-10 07:39 26.15633 119.69854 6803 ft 332 kts 25°
2026-04-10 07:39 26.17699 119.71032 6368 ft 326 kts 25°
2026-04-10 07:39 26.19722 119.72186 5943 ft 321 kts 25°
2026-04-10 07:40 26.21693 119.73309 5491 ft 317 kts 25°
2026-04-10 07:40 26.23652 119.74426 5075 ft 313 kts 27°
2026-04-10 07:40 26.25258 119.75897 4671 ft 289 kts 51°
2026-04-10 07:40 26.26128 119.77855 4506 ft 269 kts 70°
2026-04-10 07:41 26.26503 119.79794 4371 ft 254 kts 90°
2026-04-10 07:41 26.26200 119.81680 4184 ft 243 kts 116°
2026-04-10 07:41 26.25180 119.83145 3995 ft 237 kts 145°
2026-04-10 07:41 26.23730 119.83832 3896 ft 228 kts 178°
2026-04-10 07:42 26.22184 119.83530 3892 ft 223 kts 211°
2026-04-10 07:42 26.20955 119.82487 3896 ft 223 kts 220°
2026-04-10 07:42 26.19711 119.81462 3890 ft 216 kts 216°
2026-04-10 07:42 26.18494 119.80595 3911 ft 199 kts 213°
2026-04-10 07:43 26.17311 119.79829 3886 ft 194 kts 211°
2026-04-10 07:43 26.16132 119.79125 3687 ft 192 kts 210°
2026-04-10 07:43 26.14945 119.78442 3449 ft 189 kts 210°
2026-04-10 07:43 26.13778 119.77779 3207 ft 187 kts 210°
2026-04-10 07:44 26.12651 119.77141 2969 ft 185 kts 210°
2026-04-10 07:44 26.11470 119.76472 2716 ft 184 kts 209°
2026-04-10 07:44 26.10324 119.75826 2468 ft 182 kts 209°
2026-04-10 07:44 26.09231 119.75208 2239 ft 171 kts 209°
2026-04-10 07:45 26.08197 119.74622 2001 ft 163 kts 209°
2026-04-10 07:45 26.07213 119.74065 1899 ft 150 kts 209°
2026-04-10 07:45 26.06296 119.73546 1894 ft 146 kts 210°
2026-04-10 07:45 26.05390 119.73035 1897 ft 145 kts 210°
2026-04-10 07:46 26.04506 119.72537 1881 ft 137 kts 210°
2026-04-10 07:46 26.03659 119.72058 1869 ft 138 kts 209°
2026-04-10 07:46 26.02832 119.71594 1703 ft 126 kts 209°
2026-04-10 07:46 26.02057 119.71157 1538 ft 123 kts 209°
2026-04-10 07:47 26.01394 119.70784 1409 ft 121 kts 209°
2026-04-10 07:47 26.00686 119.70386 1266 ft 121 kts 208°
2026-04-10 07:47 25.99935 119.69964 1120 ft 120 kts 208°
2026-04-10 07:47 25.99185 119.69543 967 ft 119 kts 208°
2026-04-10 07:48 25.98447 119.69128 813 ft 119 kts 208°
2026-04-10 07:48 25.97709 119.68713 667 ft 118 kts 207°
2026-04-10 07:48 25.96975 119.68301 515 ft 118 kts 207°
2026-04-10 07:48 25.96246 119.67892 374 ft 117 kts 206°
2026-04-10 07:49 25.95513 119.67484 208 ft 116 kts 206°
2026-04-10 07:49 25.94799 119.67084 81 ft 115 kts 207°
2026-04-10 07:49 25.94155 119.66708 61 ft 84 kts 205°
2026-04-10 07:49 25.93783 119.66514 61 ft 37 kts 206°
2026-04-10 07:50 25.93593 119.66404 61 ft 25 kts 207°
2026-04-10 07:50 25.93452 119.66331 61 ft 22 kts 198°
2026-04-10 07:50 25.93287 119.66309 62 ft 24 kts 181°
2026-04-10 07:50 25.93251 119.66310 61 ft 0 kts 177°
2026-04-10 07:51 25.93215 119.66312 61 ft 10 kts 178°
2026-04-10 07:51 25.93121 119.66317 62 ft 11 kts 180°
2026-04-10 07:52 25.93025 119.66307 62 ft 10 kts 179°
2026-04-10 07:52 25.92949 119.66357 62 ft 15 kts 165°
2026-04-10 07:52 25.92844 119.66327 62 ft 7 kts 207°
2026-04-10 07:52 25.92789 119.66303 62 ft 9 kts 187°
2026-04-10 07:53 25.92762 119.66324 62 ft 1 kts 118°
2026-04-10 07:53 25.92755 119.66344 62 ft 4 kts 112°
2026-04-10 07:53 25.92749 119.66357 62 ft 0 kts 117°